Radiation Dose measured at exhaust stack monitor of Fukushima Daiichi Nuclear Power Station
Date,Time,Unit 5 6 shared exhaust cylinders,Wind Direction,Wind Velocity(m/s)
2021/12/27,00:00,4.1,west,6.5
2021/12/27,00:10,4.2,west,5.8
2021/12/27,00:20,3.9,west-northwest,5.8
2021/12/27,00:30,3.9,west-northwest,6.3
2021/12/27,00:40,3.8,west-northwest,6.3
2021/12/27,00:50,4.0,northwest,6.1
2021/12/27,01:00,4.1,west-northwest,6.8
2021/12/27,01:10,4.2,west-northwest,7.7
2021/12/27,01:20,4.1,west-northwest,6.0
2021/12/27,01:30,3.9,west-northwest,5.4
2021/12/27,01:40,4.1,west,6.7
2021/12/27,01:50,4.0,west-southwest,5.3
2021/12/27,02:00,3.9,west,7.0
2021/12/27,02:10,4.1,west,5.0
2021/12/27,02:20,4.0,west,6.2
2021/12/27,02:30,4.3,west,5.8
2021/12/27,02:40,3.9,west,5.9
2021/12/27,02:50,3.9,west,5.3
2021/12/27,03:00,3.9,west,5.1
2021/12/27,03:10,4.0,west,4.8
2021/12/27,03:20,4.0,west,2.9
2021/12/27,03:30,4.0,west-northwest,4.3
2021/12/27,03:40,4.1,west-northwest,3.3
2021/12/27,03:50,3.9,west,3.5
2021/12/27,04:00,4.0,west,4.4
2021/12/27,04:10,4.1,west,4.0
2021/12/27,04:20,4.2,west-southwest,4.5
2021/12/27,04:30,4.1,west-southwest,4.0
2021/12/27,04:40,4.0,southwest,3.0
2021/12/27,04:50,4.0,southwest,2.8
2021/12/27,05:00,4.2,southwest,3.2
2021/12/27,05:10,4.1,southwest,4.7
2021/12/27,05:20,4.0,west-southwest,5.1
2021/12/27,05:30,4.0,west,3.4
2021/12/27,05:40,4.0,west-southwest,2.5
2021/12/27,05:50,4.1,southwest,3.8
2021/12/27,06:00,4.1,southwest,4.8
2021/12/27,06:10,4.1,south-southwest,4.9
2021/12/27,06:20,4.0,south-southwest,4.3
2021/12/27,06:30,4.1,south-southwest,2.9
2021/12/27,06:40,4.0,southwest,4.4
2021/12/27,06:50,4.1,southwest,4.1
2021/12/27,07:00,4.1,south-southwest,3.5
2021/12/27,07:10,4.0,southwest,2.6
2021/12/27,07:20,4.2,west-southwest,1.7
2021/12/27,07:30,4.2,west-southwest,1.5
2021/12/27,07:40,4.1,west-southwest,1.7
2021/12/27,07:50,4.1,west-southwest,0.9
2021/12/27,08:00,4.1,west-southwest,1.4
2021/12/27,08:10,4.1,southwest,1.7
2021/12/27,08:20,3.9,southwest,2.3
2021/12/27,08:30,3.9,south,2.3
2021/12/27,08:40,4.1,south,1.7
2021/12/27,08:50,4.0,south-southeast,2.0
2021/12/27,09:00,4.2,south-southeast,1.7
2021/12/27,09:10,4.0,east,0.9
2021/12/27,09:20,3.9,southeast,1.7
2021/12/27,09:30,4.1,east-northeast,1.1
2021/12/27,09:40,4.0,southwest,0.6
2021/12/27,09:50,4.0,west,4.9
2021/12/27,10:00,4.2,west,4.5
2021/12/27,10:10,4.1,west,7.4
2021/12/27,10:20,4.2,west,6.4
2021/12/27,10:30,4.3,west,6.5
2021/12/27,10:40,4.1,west,7.1
2021/12/27,10:50,4.0,west,8.0
2021/12/27,11:00,4.0,west,7.8
2021/12/27,11:10,4.4,west,8.7
2021/12/27,11:20,3.9,west,8.8
2021/12/27,11:30,4.2,west,7.3
2021/12/27,11:40,4.0,west,7.5
2021/12/27,11:50,3.9,west-southwest,8.8
2021/12/27,12:00,4.0,west,8.9
2021/12/27,12:10,4.0,west,8.3
2021/12/27,12:20,4.3,west,7.4
2021/12/27,12:30,4.2,west,9.0
2021/12/27,12:40,4.1,west,9.2
2021/12/27,12:50,4.2,west,7.8
2021/12/27,13:00,4.0,west-southwest,6.9
2021/12/27,13:10,4.0,west-southwest,9.6
2021/12/27,13:20,4.2,west-southwest,8.4
2021/12/27,13:30,4.3,west,5.8
2021/12/27,13:40,4.0,west-northwest,6.1
2021/12/27,13:50,4.2,north,7.4
2021/12/27,14:00,4.1,north-northwest,5.3
2021/12/27,14:10,4.1,north-northwest,5.3
2021/12/27,14:20,4.3,north-northwest,4.5
2021/12/27,14:30,4.0,north-northwest,4.8
2021/12/27,14:40,4.0,north-northwest,5.1
2021/12/27,14:50,4.1,north-northwest,5.1
2021/12/27,15:00,4.0,north-northwest,5.0
2021/12/27,15:10,4.1,northwest,4.3
2021/12/27,15:20,4.2,west-northwest,3.6
2021/12/27,15:30,4.1,west-southwest,2.3
2021/12/27,15:40,4.1,west-southwest,2.6
2021/12/27,15:50,4.1,west,5.7
2021/12/27,16:00,4.0,west,6.3
2021/12/27,16:10,4.1,west-southwest,6.8
2021/12/27,16:20,4.1,west,6.4
2021/12/27,16:30,4.0,west,6.1
2021/12/27,16:40,4.0,west,4.8
2021/12/27,16:50,4.1,west,7.0
2021/12/27,17:00,4.1,west,5.2
2021/12/27,17:10,4.0,west,5.2
2021/12/27,17:20,3.8,west,5.2
2021/12/27,17:30,4.0,west,4.1
2021/12/27,17:40,4.0,west-southwest,5.0
2021/12/27,17:50,4.1,west,4.4
2021/12/27,18:00,4.1,west,4.3
2021/12/27,18:10,4.0,west,4.0
2021/12/27,18:20,4.1,west,2.9
2021/12/27,18:30,4.1,west,3.2
2021/12/27,18:40,4.2,west,3.6
2021/12/27,18:50,4.1,west-southwest,4.0
2021/12/27,19:00,4.0,west-southwest,3.2
2021/12/27,19:10,4.2,west-southwest,1.5
2021/12/27,19:20,4.0,west-southwest,1.4
2021/12/27,19:30,4.2,west-southwest,1.9
2021/12/27,19:40,4.1,southwest,2.3
2021/12/27,19:50,4.0,southwest,2.6
2021/12/27,20:00,4.1,southwest,4.3
2021/12/27,20:10,4.0,southwest,5.3
2021/12/27,20:20,3.9,southwest,5.7
2021/12/27,20:30,4.0,southwest,6.4
2021/12/27,20:40,4.0,southwest,6.6
2021/12/27,20:50,4.1,west-southwest,5.1
2021/12/27,21:00,4.2,west-southwest,3.0
2021/12/27,21:10,4.1,west,2.6
2021/12/27,21:20,4.1,west,3.1
2021/12/27,21:30,4.0,west,5.0
2021/12/27,21:40,4.2,west,3.9
2021/12/27,21:50,4.1,west,4.0
2021/12/27,22:00,4.2,west,4.0
2021/12/27,22:10,3.9,west-southwest,3.9
2021/12/27,22:20,4.2,west,4.5
2021/12/27,22:30,4.1,west,4.9
2021/12/27,22:40,4.2,west,4.2
2021/12/27,22:50,4.1,west,4.8
2021/12/27,23:00,4.1,west,4.4
2021/12/27,23:10,3.9,west-northwest,4.7
2021/12/27,23:20,4.1,west,4.2
2021/12/27,23:30,4.2,west-northwest,5.5
2021/12/27,23:40,4.1,west-northwest,4.8
2021/12/27,23:50,4.0,west,4.6
